Regional Weather Roundup
Issued by NWS

Home | Current Version | Previous Version | Text Only | Print | Product List | Glossary On
Versions: 1 2 3 4 5 6 7 8 9 10 11 12 13 14 15 16 17 18 19 20 21 22 23 24 25 26 27 28 29 30 31 32 33 34 35 36 37 38 39 40 41 42 43 44 45 46 47 48 49
000
ASUS44 KBMX 220410
RWRAL

ALABAMA REGIONAL WEATHER ROUNDUP
NATIONAL WEATHER SERVICE BIRMINGHAM AL
1100 PM CDT TUE OCT 21 2014

NOTE: "FAIR" INDICATES FEW OR NO CLOUDS BELOW 12,000 FEET
WITH NO SIGNIFICANT WEATHER AND/OR OBSTRUCTIONS TO VISIBILITY.

THE REMARK "TC" DENOTES TEMPERATURE IN DEGREES CELSIUS.

ALZ001>011-014-016>018-020-220500-
NORTH ALABAMA

CITY           SKY/WX    TMP DP  RH WIND       PRES   REMARKS
MUSCLE SHOALS  CLEAR     60  48  64 NE6       30.10S
HUNTSVILLE     CLEAR     58  47  66 N8        30.08R
DECATUR        CLEAR     56  47  71 N9        30.09R
HALEYVILLE     FAIR      51  48  89 N3        30.10S
GADSDEN        CLEAR     48  45  87 CALM      30.05S
$$

ALZ012-013-022-023-030>036-040>044-220500-
WEST CENTRAL ALABAMA

CITY           SKY/WX    TMP DP  RH WIND       PRES   REMARKS
TUSCALOOSA     CLEAR     58  49  72 CALM      30.06R
$$

ALZ015-024>027-033>036-040>044-220500-
CENTRAL ALABAMA

CITY           SKY/WX    TMP DP  RH WIND       PRES   REMARKS
BIRMINGHAM     CLEAR     54  49  83 CALM      30.08R
MONTGOMERY     CLEAR     58  53  84 CALM      30.03R
SHELBY CO ARPT CLEAR     56  53  90 CALM      30.06R
MAXWELL AFB    CLEAR     56  56 100 CALM      30.02S FOG
GREENVILLE     FAIR      56  52  86 CALM      30.03S
$$

ALZ019-021-028-029-037-038-045>048-220500-
EAST CENTRAL ALABAMA

CITY           SKY/WX    TMP DP  RH WIND       PRES   REMARKS
ANNISTON       CLEAR     52  48  86 CALM      30.05S
ALEXANDER CITY CLEAR     58  51  78 CALM      30.04S
AUBURN         CLEAR     57  48  72 N5        30.06S
$$

ALZ051>064-220500-
SOUTHWEST ALABAMA

CITY           SKY/WX    TMP DP  RH WIND       PRES   REMARKS
MOBILE         CLEAR     60  55  83 N7        30.03F
BROOKLEY FIELD CLEAR     60  56  86 NW5       30.04S
EVERGREEN      CLEAR     56  53  90 CALM      30.04S
$$

ALZ049-050-065>069-220500-
SOUTHEAST ALABAMA

CITY           SKY/WX    TMP DP  RH WIND       PRES   REMARKS
DOTHAN         CLEAR     55  52  89 CALM      30.05S
OZARK          CLEAR     59  55  87 CALM      30.02S
TROY           CLEAR     53  51  93 CALM      30.04R
EUFAULA        FAIR      55  53  93 CALM      30.02R
$$



USA.gov is the U.S. government's official web portal to all federal, state and local government web resources and services.